Tracking 30922 objects as of 2-Jul-2025
HD Live streaming from Space Station
objects crossing your sky now

THORAD AGENA D DEB

Track THORAD AGENA D DEB now!
10-day predictions


NORAD ID: 42509
Int'l Code: 1970-025RP
Perigee: 971.7 km
Apogee: 1,151.8 km
Inclination: 100.0 °
Period: 106.3 minutes
Semi major axis: 7432 km
RCS: Unknown
Launch date: April 8, 1970
Source: United States (US)
Launch site: AIR FORCE WESTERN TEST RANGE (AFWTR)

Note: This is SATELLITE DEBRIS
Your satellite tracking list
WESTFORD NEEDLES
Track 1 satellite(s)




NASA's NSSDC Master Catalog

Two Line Element Set (TLE):
1 42509U 70025RP  25176.54474693  .00000717  00000-0  10620-2 0  9993
2 42509 100.0402 298.1807 0121138 311.9458  47.1403 13.54805445571608
Source of the keplerian elements: AFSPC